Station KPTV2 - 8632200 - Kiptopeke, VA Image indicating link to RSS feed of recent meteorological observations for station KPTV2


Conditions at KPTV2 as of
(1:48 pm EDT)
1748 GMT on 05/20/2024:
     

Click on the graph icon in the table below to see a time series plot of the last five days of that observation.

5-day plot - Wind Direction Wind Direction (WDIR): E ( 90 deg true )
5-day plot - Wind Speed Wind Speed (WSPD): 8.9 kts
5-day plot - Wind Gust Wind Gust (GST): 12.0 kts
5-day plot - Atmospheric Pressure Atmospheric Pressure (PRES):30.06 in
5-day plot - Air Temperature Air Temperature (ATMP): 63.5 °F
5-day plot - Water Temperature Water Temperature (WTMP): 65.7 °F
5-day plot - Wind Speed at 10 Meters Wind Speed at 10 meters (WSPD10M): 9.7 kts
5-day plot - Wind Speed at 20 Meters Wind Speed at 20 meters (WSPD20M): 9.7 kts
5-day plot -  Wind Speed, Wind Gust and Atmospheric Pressure Combined plot of Wind Speed, Gust, and Air Pressure
NOS Water Level Observation Network Water Level
Previous observations
TIME
(EDT)
5-day plot - Wind Direction
WDIR
 
5-day plot - Wind Speed
WSPD
kts
5-day plot - Wind Gust
GST
kts
5-day plot - Wave Height
WVHT
ft
5-day plot - Dominant Wave Period
DPD
sec
5-day plot - Average Wave Period
APD
sec
5-day plot - Mean Wave Direction
MWD
 
5-day plot - Atmospheric Pressure
PRES
in
5-day plot - Pressure Tendency
PTDY
in
5-day plot - Air Temperature
ATMP
°F
5-day plot - Water Temperature
WTMP
°F
5-day plot - Dew Point
DEWP
°F
5-day plot - Salinity
SAL
psu
5-day plot - Visibility
VIS
nmi
5-day plot - Tide (above MLLW)
TIDE
ft
2024-05-20 01:42 pmENE 8.0 11.1----30.06- 63.5 65.3----
2024-05-20 01:36 pm E 6.0 12.0----30.06- 64.4 65.3----
2024-05-20 01:30 pm E 8.0 11.1----30.07- 63.3 65.3----
2024-05-20 01:24 pm E 8.9 13.0----30.07- 64.2 65.3----
2024-05-20 01:18 pm E 8.0 11.1----30.07- 64.0 65.3----
2024-05-20 01:12 pmENE 8.0 11.1----30.08- 63.7 65.3----
2024-05-20 01:06 pmENE 8.0 12.0----30.08- 63.7 65.3----
2024-05-20 01:00 pm E 7.0 9.9----30.09-0.01 64.0 65.1----
2024-05-20 12:54 pmENE 8.9 12.0----30.09- 63.7 65.1----
2024-05-20 12:48 pmENE 7.0 11.1----30.09- 64.2 65.1----
2024-05-20 12:42 pm E 8.0 13.0----30.09- 64.4 65.1----
2024-05-20 12:36 pm E 7.0 11.1----30.09- 63.9 65.1----
2024-05-20 12:30 pm NE 6.0 9.9----30.09- 64.2 65.1----
2024-05-20 12:24 pmENE 5.1 11.1----30.09- 64.4 64.9----
2024-05-20 12:18 pm E 5.1 11.1----30.08- 63.5 64.8----
2024-05-20 12:12 pm E 7.0 11.1----30.09- 63.7 64.8----
2024-05-20 12:06 pm E 7.0 11.1----30.09- 63.7 64.8----
2024-05-20 12:00 pm E 6.0 11.1----30.09+0.00 63.0 64.8----
2024-05-20 11:54 am E 8.0 11.1----30.09- 62.2 64.8----
2024-05-20 11:48 am NE 6.0 11.1----30.09- 62.4 64.8----
2024-05-20 11:42 am E 7.0 11.1----30.09- 62.4 64.8----
2024-05-20 11:36 am E 6.0 9.9----30.09- 62.8 64.8----
2024-05-20 11:30 am E 6.0 11.1----30.09- 62.4 64.8----
2024-05-20 11:24 am E 9.9 12.0----30.09- 61.7 64.8----
2024-05-20 11:18 amENE 6.0 12.0----30.09- 62.6 64.8----
2024-05-20 11:12 amENE 8.0 11.1----30.09- 62.6 64.8----
2024-05-20 11:06 am E 8.0 9.9----30.09- 62.8 64.8----
2024-05-20 11:00 amENE 6.0 9.9----30.09+0.03 62.8 64.8----
2024-05-20 10:54 amENE 7.0 11.1----30.09- 62.4 64.8----
2024-05-20 10:48 amENE 8.0 11.1----30.10- 61.7 64.6----
2024-05-20 10:42 am E 8.9 9.9----30.10- 61.0 64.6----
2024-05-20 10:36 amENE 8.0 9.9----30.10- 61.2 64.6----
2024-05-20 10:30 amENE 4.1 8.0----30.10- 61.5 64.6----
2024-05-20 10:24 amENE 5.1 8.0----30.10- 61.5 64.6----
2024-05-20 10:18 am E 5.1 8.9----30.09- 61.3 64.6----
2024-05-20 10:12 am E 7.0 9.9----30.10- 60.8 64.6----
2024-05-20 10:06 amENE 6.0 8.9----30.09- 60.6 64.6----
2024-05-20 10:00 am E 7.0 9.9----30.10+0.06 60.4 64.6----
2024-05-20 09:54 am NE 2.9 8.0----30.10- 61.2 64.6----
2024-05-20 09:48 am NE 5.1 8.0----30.10- 60.3 64.6----
2024-05-20 09:42 amENE 5.1 8.9----30.10- 60.3 64.6----
2024-05-20 09:36 amENE 5.1 8.0----30.10- 59.9 64.6----
2024-05-20 09:30 am NE 4.1 8.0----30.10- 60.1 64.6----
2024-05-20 09:24 am NE 6.0 9.9----30.10- 59.4 64.6----
2024-05-20 09:18 am NE 6.0 12.0----30.09- 58.8 64.6----
2024-05-20 09:12 am NE 8.9 13.0----30.09- 58.5 64.6----
2024-05-20 09:06 am NE 7.0 11.1----30.09- 58.5 64.6----
2024-05-20 09:00 am NE 8.9 12.0----30.09+0.06 58.1 64.6----
2024-05-20 08:54 am NE 6.0 9.9----30.09- 58.1 64.6----
2024-05-20 08:48 am NE 8.0 11.1----30.09- 57.9 64.6----
2024-05-20 08:42 am NE 7.0 12.0----30.08- 57.7 64.6----
2024-05-20 08:36 am NE 8.0 11.1----30.08- 57.7 64.6----
2024-05-20 08:30 am NE 6.0 8.9----30.08- 57.9 64.6----
2024-05-20 08:24 am NE 6.0 9.9----30.07- 57.7 64.6----
2024-05-20 08:18 am NE 6.0 11.1----30.07- 57.6 64.6----
2024-05-20 08:12 amENE 8.0 12.0----30.06- 57.4 64.6----
2024-05-20 08:06 am NE 6.0 12.0----30.06- 57.4 64.6----
2024-05-20 08:00 amENE 8.0 13.0----30.06+0.04 57.4 64.6----
2024-05-20 07:54 am NE 6.0 11.1----30.06- 57.4 64.6----
2024-05-20 07:48 amENE 6.0 8.9----30.06- 57.7 64.6----
2024-05-20 07:42 am NE 6.0 9.9----30.05- 57.4 64.6----
2024-05-20 07:36 am NE 7.0 9.9----30.05- 57.4 64.6----
2024-05-20 07:30 amENE 5.1 8.9----30.04- 57.2 64.6----
2024-05-20 07:24 am NE 5.1 11.1----30.04- 57.0 64.6----
2024-05-20 07:18 am NE 5.1 6.0----30.04- 57.2 64.6----
2024-05-20 07:12 am NE 4.1 8.9----30.04- 57.0 64.6----
2024-05-20 07:06 am NE 4.1 9.9----30.04- 56.8 64.6----
2024-05-20 07:00 amNNE 7.0 11.1----30.03+0.02 56.7 64.6----
2024-05-20 06:54 amNNE 6.0 9.9----30.03- 56.8 64.6----
2024-05-20 06:48 am NE 5.1 7.0----30.03- 56.8 64.6----
2024-05-20 06:42 amNNE 5.1 6.0----30.04- 56.7 64.6----
2024-05-20 06:36 am NE 4.1 8.0----30.03- 56.5 64.6----
2024-05-20 06:30 am NE 4.1 6.0----30.03- 56.5 64.6----
2024-05-20 06:24 amNNE 4.1 8.0----30.03- 56.3 64.6----
2024-05-20 06:18 am NE 4.1 7.0----30.03- 56.5 64.6----
2024-05-20 06:12 am NE 6.0 8.0----30.03- 56.3 64.6----
2024-05-20 06:06 am NE 5.1 9.9----30.03- 56.3 64.6----
2024-05-20 06:00 am NE 4.1 8.0----30.03+0.01 56.1 64.6----
2024-05-20 05:54 am NE 6.0 9.9----30.03- 56.1 64.6----
2024-05-20 05:48 am NE 5.1 8.9----30.03- 55.9 64.8----
2024-05-20 05:42 am NE 6.0 9.9----30.03- 55.9 64.8----
2024-05-20 05:36 am NE 6.0 11.1----30.03- 55.9 64.8----
2024-05-20 05:30 am NE 5.1 12.0----30.03- 56.1 64.8----
2024-05-20 05:24 amENE 4.1 6.0----30.03- 56.3 64.8----
2024-05-20 05:18 am NE 2.9 7.0----30.03- 56.3 64.8----
2024-05-20 05:12 am NE 4.1 8.0----30.02- 56.1 64.8----
2024-05-20 05:06 am NE 5.1 9.9----30.02- 55.9 64.8----
2024-05-20 05:00 amENE 6.0 9.9----30.02-0.01 55.9 64.8----
2024-05-20 04:54 amENE 7.0 9.9----30.02- 55.8 64.8----
2024-05-20 04:48 amENE 7.0 11.1----30.02- 55.9 64.8----
2024-05-20 04:42 amENE 6.0 12.0----30.02- 56.1 64.8----
2024-05-20 04:36 amENE 5.1 8.9----30.02- 56.1 64.8----
2024-05-20 04:30 amENE 5.1 8.0----30.02- 56.3 64.8----
2024-05-20 04:24 amENE 5.1 8.0----30.02- 56.3 64.8----
2024-05-20 04:18 amENE 6.0 9.9----30.02- 56.3 64.8----
2024-05-20 04:12 amENE 6.0 9.9----30.02- 56.5 64.8----
2024-05-20 04:06 am NE 6.0 8.9----30.02- 56.5 64.8----
2024-05-20 04:00 amENE 7.0 11.1----30.01-0.03 56.5 64.8----
2024-05-20 03:54 amENE 8.9 14.0----30.01- 56.3 64.8----
2024-05-20 03:48 amENE 6.0 12.0----30.00- 56.5 64.8----
2024-05-20 03:42 amENE 7.0 9.9----30.00- 56.5 64.8----
2024-05-20 03:36 amENE 8.0 13.0----30.01- 56.5 64.8----
2024-05-20 03:30 amENE 8.9 13.0----30.01- 56.3 64.9----
2024-05-20 03:24 amENE 7.0 12.0----30.01- 56.5 64.9----
2024-05-20 03:18 amENE 7.0 13.0----30.01- 56.7 64.9----
2024-05-20 03:12 amENE 8.9 12.0----30.02- 56.7 64.9----
2024-05-20 03:06 am E 8.9 14.0----30.01- 56.7 64.9----
2024-05-20 03:00 amENE 8.0 12.0----30.02-0.03 56.8 64.9----
2024-05-20 02:54 amENE 6.0 9.9----30.02- 56.7 64.9----
2024-05-20 02:48 amENE 7.0 11.1----30.02- 56.7 64.9----
2024-05-20 02:42 amENE 5.1 8.9----30.02- 56.5 64.9----
2024-05-20 02:36 amENE 6.0 8.9----30.02- 56.5 64.9----
2024-05-20 02:30 amENE 5.1 8.0----30.02- 56.5 64.9----
2024-05-20 02:24 amENE 5.1 7.0----30.03- 56.3 64.9----
2024-05-20 02:18 amENE 2.9 6.0----30.03- 56.5 65.1----
2024-05-20 02:12 am NE 4.1 6.0----30.03- 56.5 65.1----
2024-05-20 02:06 amENE 2.9 5.1----30.03- 56.3 65.1----
2024-05-20 02:00 amENE 2.9 5.1----30.03+0.00 56.5 65.1----
2024-05-20 01:54 amENE 4.1 7.0----30.03- 56.5 65.3----
2024-05-20 01:48 am NE 5.1 6.0----30.04- 56.7 65.3----
2024-05-20 01:42 amENE 2.9 5.1----30.03- 56.7 65.3----
2024-05-20 01:36 amENE 2.9 6.0----30.04- 56.7 65.3----
2024-05-20 01:30 amENE 5.1 7.0----30.04- 56.7 65.3----
2024-05-20 01:24 amENE 5.1 8.9----30.03- 56.8 65.3----
2024-05-20 01:18 am-------30.03-- 65.3----
2024-05-20 01:12 am-------30.04-- 65.3----
2024-05-20 01:06 am-------30.04-- 65.3----
2024-05-20 01:00 amENE 5.1 8.9----30.04+0.00 56.8 65.3----
2024-05-20 12:54 amENE 5.1 7.0----30.04- 56.8 65.3----
2024-05-20 12:48 amENE 5.1 7.0----30.04- 56.8 65.3----
2024-05-20 12:42 am E 5.1 8.0----30.04- 57.0 65.3----
2024-05-20 12:36 am E 5.1 7.0----30.03- 57.0 65.3----
2024-05-20 12:30 am E 4.1 7.0----30.04- 57.4 65.5----
2024-05-20 12:24 am E 6.0 9.9----30.04- 57.2 65.5----
2024-05-20 12:18 am E 6.0 8.0----30.04- 57.4 65.5----
2024-05-20 12:12 am E 5.1 7.0----30.04- 57.6 65.5----
2024-05-20 12:06 amENE 4.1 7.0----30.04- 57.6 65.5----
2024-05-20 12:00 amENE 4.1 6.0----30.04+0.02 57.6 65.5----
2024-05-19 11:54 pmENE 2.9 5.1----30.04- 57.6 65.5----
2024-05-19 11:48 pmENE 4.1 5.1----30.04- 57.6 65.5----
2024-05-19 11:42 pm E 5.1 7.0----30.04- 57.7 65.5----
2024-05-19 11:36 pm E 5.1 8.0----30.04- 58.1 65.5----
2024-05-19 11:30 pm E 5.1 7.0----30.04- 58.3 65.5----
2024-05-19 11:24 pm E 5.1 7.0----30.04- 58.3 65.5----
2024-05-19 11:18 pm E 5.1 7.0----30.04-- 65.5----
2024-05-19 11:12 pm E 5.1 7.0----30.04-- 65.5----
2024-05-19 11:06 pm E 5.1 8.0----30.04-- 65.5----
2024-05-19 11:00 pm E 5.1 8.0----30.04+0.02 58.8 65.5----
2024-05-19 10:54 pm E 6.0 8.0----30.03- 58.8 65.5----
2024-05-19 10:48 pm E 6.0 8.9----30.03- 59.0 65.5----
2024-05-19 10:42 pm E 5.1 8.0----30.03- 58.8 65.5----
2024-05-19 10:36 pm E 5.1 7.0----30.03- 58.5 65.5----
2024-05-19 10:30 pm E 4.1 6.0----30.03- 58.5 65.5----
2024-05-19 10:24 pm E 5.1 7.0----30.03- 58.5 65.5----
2024-05-19 10:18 pm E 5.1 7.0----30.03- 58.5 65.5----
2024-05-19 10:12 pm E 6.0 8.0----30.03- 58.3 65.5----
2024-05-19 10:06 pm E 5.1 8.0----30.03- 58.3 65.5----
2024-05-19 10:00 pm E 6.0 8.9----30.03- 58.3 65.5----
2024-05-19 09:54 pm E 6.0 8.9----30.03- 58.3 65.5----
2024-05-19 09:48 pm E 7.0 8.9----30.03- 58.3 65.5----
2024-05-19 09:42 pm E 6.0 9.9----30.03- 58.3 65.5----
2024-05-19 09:36 pm E 7.0 8.9----30.03- 58.3 65.5----
2024-05-19 09:30 pm E 6.0 8.9----30.03-- 65.5----
2024-05-19 09:24 pm E 7.0 9.9----30.03-- 65.5----
2024-05-19 09:18 pm E 7.0 8.9----30.03-- 65.5----
2024-05-19 09:12 pm E 6.0 11.1----30.03-- 65.5----
2024-05-19 09:06 pm E 6.0 8.9----30.03-- 65.5----
2024-05-19 09:00 pm E 7.0 9.9----30.02+0.02- 65.5----
2024-05-19 08:54 pm E 8.0 12.0----30.02-- 65.5----
2024-05-19 08:48 pm E 8.0 11.1----30.02- 58.5 65.5----
2024-05-19 08:42 pm E 7.0 9.9----30.02- 58.5 65.5----
2024-05-19 08:36 pm E 8.0 12.0----30.02- 58.6 65.5----
2024-05-19 08:30 pm E 8.0 12.0----30.02- 58.5 65.5----
2024-05-19 08:24 pm E 8.0 12.0----30.01- 58.6 65.5----
2024-05-19 08:18 pm---------- 65.5----
2024-05-19 08:12 pm---------- 65.5----
2024-05-19 08:06 pm---------- 65.5----
2024-05-19 08:00 pm E 8.0 9.9----30.01+0.01- 65.5----
2024-05-19 07:54 pm E 8.9 12.0----30.01-- 65.5----
2024-05-19 07:48 pm E 8.9 14.0------------
2024-05-19 07:42 pm E 8.9 14.0------------
2024-05-19 07:36 pm E 9.9 15.0------------
2024-05-19 07:30 pm E 9.9 13.0----30.01- 59.4 65.7----
2024-05-19 07:24 pm E 8.9 12.0----30.01- 59.7 65.7----
2024-05-19 07:00 pm E 8.0 12.0------- 65.7----
2024-05-19 06:54 pm E 8.0 14.0------- 65.7----
2024-05-19 06:48 pm E 8.9 14.0----30.01-- 65.7----
2024-05-19 06:42 pm E 8.0 15.0----30.01-- 65.7----
2024-05-19 06:36 pm E 9.9 15.0----30.01-- 65.7----
2024-05-19 06:30 pm E 12.0 15.9----30.01-- 65.7----
2024-05-19 06:24 pm E 11.1 14.0----30.01-- 65.7----
2024-05-19 06:18 pm-------30.01- 60.4 65.7----
2024-05-19 06:12 pm-------30.01- 60.8 65.7----
2024-05-19 06:06 pm-------30.00- 60.4 65.7----
2024-05-19 06:00 pm E 8.9 14.0----30.00+0.00 60.6 65.7----
2024-05-19 05:54 pm E 9.9 14.0----30.00- 61.0 65.7----
2024-05-19 05:48 pmENE 8.0 15.0----30.00- 61.7 65.8----
2024-05-19 05:42 pm E 8.9 14.0----29.99- 61.7 65.8----
2024-05-19 05:36 pm E 7.0 13.0----29.99- 61.5 65.8----
2024-05-19 05:30 pm E 8.0 14.0----29.99- 61.2 65.8----
2024-05-19 05:24 pmENE 8.9 12.0----30.00- 61.0 65.8----
2024-05-19 05:18 pm E 8.9 14.0----30.00- 61.0 65.8----
2024-05-19 05:12 pmENE 6.0 12.0----30.00- 61.5 65.8----
2024-05-19 05:06 pm E 8.0 11.1----30.00- 61.0 65.8----
2024-05-19 05:00 pm E 8.0 11.1----30.00-0.01 61.0 65.8----
2024-05-19 04:54 pmENE 6.0 11.1----30.00- 61.2 65.8----
2024-05-19 04:48 pm E 7.0 12.0----29.99- 61.2 65.8----
2024-05-19 04:42 pm E 7.0 11.1----29.99- 61.2 65.8----
2024-05-19 04:36 pm E 8.0 12.0----29.99- 61.3 65.8----
2024-05-19 04:30 pm E 8.0 11.1----29.99- 61.0 65.8----
2024-05-19 04:24 pm E 7.0 11.1----30.00- 61.0 65.8----
2024-05-19 04:18 pm E 6.0 8.9----29.99- 61.3 65.8----
2024-05-19 04:12 pm E 5.1 11.1----29.99- 61.3 65.8----
2024-05-19 04:06 pm E 8.9 12.0----29.99- 61.2 65.8----
2024-05-19 04:00 pm E 8.0 12.0----29.99-0.01- 65.8----
2024-05-19 03:54 pm E 8.9 13.0----29.99-- 66.0----
2024-05-19 03:48 pm E 7.0 9.9----29.99-- 66.0----
2024-05-19 03:42 pm E 5.1 8.9----29.99-- 66.0----
2024-05-19 03:36 pm E 7.0 12.0----29.99-- 66.0----
2024-05-19 03:30 pmENE 7.0 9.9----29.99- 62.2 66.0----
2024-05-19 03:24 pm E 5.1 9.9----30.00- 62.2 66.0----
2024-05-19 03:18 pm E 7.0 11.1----30.00- 61.7 65.8----
2024-05-19 03:12 pmENE 8.9 12.0----30.00- 61.2 65.8----
2024-05-19 03:06 pmENE 6.0 12.0----30.00- 61.5 65.8----
2024-05-19 03:00 pmENE 9.9 12.0----30.00-0.03- 65.8----
2024-05-19 02:54 pm E 8.0 12.0----30.01-- 65.8----
2024-05-19 02:48 pmENE 8.0 11.1----30.00- 61.9 65.8----
2024-05-19 02:42 pm E 6.0 8.0----30.00- 61.9 65.8----
2024-05-19 02:36 pmENE 6.0 12.0----30.01- 61.7 65.8----
2024-05-19 02:30 pmENE 8.9 12.0----30.01- 61.5 65.8----
2024-05-19 02:24 pmENE 8.9 11.1----30.01- 61.9 65.7----
2024-05-19 02:18 pm E 6.0 11.1----30.01- 62.4 65.7----
2024-05-19 02:12 pm E 8.0 13.0----30.01- 61.9 65.7----
2024-05-19 02:06 pm E 8.9 13.0----30.01- 62.4 65.7----
2024-05-19 02:00 pm E 7.0 13.0----30.01-0.02 62.2 65.7----
2024-05-19 01:54 pm E 8.9 14.0----30.01- 62.1 65.7----